Regional Weather Roundup
Issued by NWS

Home | Current Version | Previous Version | Text Only | Print | Product List | Glossary Off
Versions: 1 2 3 4 5 6 7 8 9 10 11 12 13 14 15 16 17 18 19 20 21 22 23 24 25 26 27 28 29 30 31 32 33 34 35 36 37 38 39 40 41 42 43 44 45 46 47 48 49 50

000
ASUS43 KOAX 200402
RWRNE

WEATHER ROUNDUP FOR NEBRASKA
NATIONAL WEATHER SERVICE OMAHA NE
1000 PM CST MON FEB 19 2018

NOTES: SATELLITE DATA IS BEING USED TO AUGMENT CLOUD COVER ABOVE
       12000 FEET.
       "FAIR" INDICATES FEW OR NO CLOUDS BELOW 12,000 FEET WITH NO
       SIGNIFICANT WEATHER AND/OR OBSTRUCTIONS TO VISIBILITY.


NEZ001>004-019>022-054>056-200500-
NEBRASKA PANHANDLE

CITY           SKY/WX    TMP DP  RH WIND       PRES   REMARKS
SCOTTSBLUFF    FOG        1  -3  83 N7        29.87S VSB 3/4 WCI -12
ALLIANCE       FOG       -1  -5  82 N12       29.86R VSB 1/2 WCI -18
CHADRON        LGT SNOW   0  -4  83 N9        29.97R FOG     WCI -15
GORDON         CLOUDY     0  -5  78 N12       29.90R WCI -17
KIMBALL        CLOUDY     1  -4  81 N10       29.75S WCI -16
SIDNEY         LGT SNOW   3  -3  76 N14       29.80R WCI -15
$$

NEZ057>060-069>072-079>082-200500-
SOUTHWEST NEBRASKA

CITY           SKY/WX    TMP DP  RH WIND       PRES   REMARKS
NORTH PLATTE   FLURRIES   9   3  77 N12       29.87R WCI  -6
IMPERIAL       LGT SNOW   8   5  87 N13       29.84R FOG     WCI  -8
LEXINGTON      CLOUDY    13   9  83 N14       29.84F WCI  -2
MCCOOK         LGT SNOW  12   8  84 N14G25    29.84S FOG     WCI  -3
OGALLALA       LGT SNOW   8   3  80 N14       29.87R WCI  -8
$$

NEZ005>010-023>029-035>040-094-200500-
NORTH CENTRAL NEBRASKA

CITY           SKY/WX    TMP DP  RH WIND       PRES   REMARKS
VALENTINE      LGT SNOW   6   0  76 N14G20    29.92S VSB 3/4 WCI -11
AINSWORTH      LGT SNOW   7   5  91 N17       29.89F WCI -12
BROKEN BOW     FLURRIES  10   5  80 N15       29.86R WCI  -7
O`NEILL        LGT SNOW  10   9  92 N10       29.90F WCI  -3
ORD            LGT SNOW  12   8  84 N14       29.89S FOG     WCI  -3
THEDFORD         N/A      7   2  82 N13       29.85F WCI -10
$$

NEZ041-046>049-061>064-073>077-083>087-200500-
SOUTH CENTRAL NEBRASKA

CITY           SKY/WX    TMP DP  RH WIND       PRES   REMARKS
GRAND ISLAND   FLURRIES  14  11  87 N20       29.85F WCI  -3
AURORA         CLOUDY    16  13  90 N16       29.85F WCI   0
HASTINGS       CLOUDY    14  11  87 N17       29.85S WCI  -3
HEBRON         CLOUDY    20  16  83 N6G16     29.86R WCI  13
HOLDREGE       FLURRIES  13  11  92 N15G22    29.85R WCI  -3
YORK           CLOUDY    18  18 100 N13G24    29.85S WCI   4
$$

NEZ011>018-030>034-042>045-200500-
NORTHEAST NEBRASKA

CITY           SKY/WX    TMP DP  RH WIND       PRES   REMARKS
NORFOLK        LGT SNOW  16  14  92 N3        29.90R FOG
ALBION         LGT SNOW  15  12  89 N12       29.89S WCI   1
BLAIR          CLOUDY    22  20  93 N8        29.84S WCI  12
COLUMBUS       CLOUDY    18  16  92 NW14      29.87F WCI   4
FREMONT        CLOUDY    21  19  93 N10       29.84F WCI  10
TEKAMAH        CLOUDY    21  19  92 N10       29.88R WCI  10
WAYNE          CLOUDY    18  17  96 N8        29.90R WCI   7
$$

NEZ050>053-065>068-078-088>093-200500-
SOUTHEAST NEBRASKA

CITY           SKY/WX    TMP DP  RH WIND       PRES   REMARKS
LINCOLN        FLURRIES  21  18  88 N10       29.87R WCI  10
OMAHA EPPLEY   CLOUDY    23  20  88 N12       29.85F WCI  12
BEATRICE       CLOUDY    22  20  92 N8        29.85S WCI  13
FALLS CITY     CLOUDY    24  23  96 N9        29.84F FOG     WCI  14
PLATTSMOUTH    CLOUDY    23  22  96 N7        29.84S WCI  14
$$

NEZ044-045-051>053-067-200500-
OMAHA AREA

CITY           SKY/WX    TMP DP  RH WIND       PRES   REMARKS
OMAHA EPPLEY   CLOUDY    23  20  88 N12       29.85F WCI  12
BLAIR          CLOUDY    22  20  93 N8        29.84S WCI  12
FREMONT        CLOUDY    21  19  93 N10       29.84F WCI  10
MILLARD        CLOUDY    24  21  89 N3        29.86S
OFFUTT AFB     CLOUDY    22  20  90 N7        29.84F WCI  14
PLATTSMOUTH    CLOUDY    23  22  96 N7        29.84S WCI  14
WAHOO          CLOUDY    22  19  90 N13       29.85F WCI  10
$$



USA.gov is the U.S. government's official web portal to all federal, state and local government web resources and services.